Location: Hat Ranch Observatory
(35.4668°N, 106.0752°W)
Time: 19:00:58
(UTC-07:00)

N. Korean satellite - Visible Passes

Search period start: 20 January 2022 00:00
Search period end: 30 January 2022 00:00
Orbit: 446 x 491 km, 97.3° (Epoch: 20 January)

Date Brightness Start Highest point End Pass type
(mag) Time Alt. Az. Time Alt. Az. Time Alt. Az.
20 Jan 9.3 05:02:07 12° S 05:02:07 12° S 05:02:23 10° S visible
21 Jan9.904:32:44SE04:32:44SE04:25:24NEvisible
21 Jan9.206:06:46SW06:06:46SW05:59:27NNWvisible
22 Jan 9.1 05:30:13 10° N 05:37:21 10° SSW 05:30:22 11° N visible
23 Jan 9.2 05:01:05 10° NNE 05:07:55 12° S 05:08:10 10° S visible
24 Jan9.804:38:29SSE04:38:29SSE04:32:11NEvisible
24 Jan 8.7 06:05:46 10° NNW 06:12:30 - SW 06:06:16 12° NNW visible
25 Jan 8.3 05:35:53 10° N 05:43:01 - SSW 05:37:10 20° N visible
26 Jan 8.4 05:06:37 10° NNE 05:13:31 12° S 05:13:48 10° S visible
27 Jan 9.3 04:37:56 10° NE 04:43:59 10° SSE 04:39:01 16° NE visible
27 Jan 8.3 06:11:34 10° NNW 06:18:00 - SW 06:13:06 15° NW visible
28 Jan10.204:14:24SE04:14:24SE04:09:59ENEvisible
28 Jan 7.3 05:41:27 10° N 05:48:25 - SW 05:44:02 33° NW visible
29 Jan 6.9 05:12:02 10° NNE 05:18:47 13° S 05:19:15 10° S visible
